FENGYUN 1C DEB

Satellite information

Favourite Embed

Satellite Type and Status

DEBRISIN ORBIT

Key statistics

Satellite FENGYUN 1C DEB at a glance.

Uptime

9553

Days in orbit

Revolutions

≈ 14.0

Per day

Orbit

SSO

Sun Synchronous Orbit

Inclination

98.8

Latest

Satellite identification and parameters

Extended collection of information and parameters for FENGYUN 1C DEB.

Object identification

Identified? True

Debris? True

Object name: FENGYUN 1C DEB

International designator: 1999-025BSB

Object number (NORAD): 31371

Object ID (CCSDS): 31371

Country: PEOPLES REPUBLIC OF CHINA (PRC)

Current information (Y/N): Y

RCS size: SMALL

Orbital parameters

Period: 102.56 minutes

Inclination: 98.7789 deg

SMA: 7257.926 km

Apoapsis: 936.008 km

Periapsis: 823.574 km

RAAN: 223.7746 deg

Eccentricy: 0.0077456

Argument of periapsis: 340.5219 deg

Mean anomaly: 19.2993 deg

Mean motion: 14.04054373 rev/day

Mean motion (dot): 0.00001006 rev/day2

B* drag term: 0.00064528 1/REarth

Two-line elements (TLE)

Creation date: July 4, 2025, 6:39 p.m.

Reference frame: TEME

Reference center: EARTH

Epoch: July 4, 2025, 7:49 a.m. UTC

TLE line 0: 0 FENGYUN 1C DEB

TLE line 1: 1 31371U 99025BSB 25185.32578836 .00001006 00000-0 64528-3 0 9998

TLE line 2: 2 31371 98.7789 223.7746 0077456 340.5219 19.2993 14.04054373934818

Live tracking on map

Real-time ground track for satellite FENGYUN 1C DEB.

In-orbit conjunctions

A list of the most updated potential collisions computed for object FENGYUN 1C DEB.

Target Orbit TCA Probability of collision Miss distance Type
METEOR 2-2 LEO 2025-02-18 08:37:37 0.0001174307 476.0 (m) PAYLOAD
NOAA 16 DEB SSO 2025-01-16 18:45:48 0.0001447285 203.0 (m) DEBRIS

Associated space launch

Chinese polar orbiting meteorological satellite

FENGYUN 1C DEB was lifted into orbit during the mission ‘Long March 4B | Feng Yun 1C’, on board a Long March 4B space rocket.

The launch took place on May 10, 1999, 1:33 a.m. from Launch Complex 7.

For more information about the launch, click the button.

Launch to space Long March 4B | Feng Yun 1C
Long March 4B | Feng Yun 1C

Agency: N/A

Status: Launch Successful

Launch date: May 10, 1999, 1:33 a.m. UTC

Rocket: Long March 4B

Launch pad: Launch Complex 7

Location: Taiyuan Satellite Launch Center, People's Republic of China

...

Latest news about this satellite

There are no fresh news available about this satellite. Check back as we update our databases every day.


Newsletter sign-up

Weekly statistics, charts and insights to help you stay on top of the space industry.